Time,TemperatureF,DewpointF,PressureIn,WindDirection,WindDirectionDegrees,WindSpeedMPH,WindSpeedGustMPH,Humidity,HourlyPrecipIn,Conditions,Clouds,dailyrainin,SoftwareType,DateUTC
2013-03-24 00:05:00,59.2,55.3,29.66,NNE,32,0.0,0.0,87,0.00,,,0.00,Wunderground v.1.15,2013-03-24 05:05:00,
2013-03-24 00:10:00,59.0,55.1,29.67,NNE,32,0.0,0.0,87,0.00,,,0.00,Wunderground v.1.15,2013-03-24 05:10:00,
2013-03-24 00:20:00,58.6,55.1,29.66,NNE,32,0.0,0.0,88,0.00,,,0.00,Wunderground v.1.15,2013-03-24 05:20:00,
2013-03-24 00:25:00,58.3,54.8,29.66,NNE,32,0.0,0.0,88,0.00,,,0.00,Wunderground v.1.15,2013-03-24 05:25:00,
2013-03-24 00:35:00,57.8,54.6,29.67,NNE,32,0.0,0.0,89,0.00,,,0.00,Wunderground v.1.15,2013-03-24 05:35:00,
2013-03-24 00:40:00,57.5,54.3,29.66,NNE,32,0.0,0.0,89,0.00,,,0.00,Wunderground v.1.15,2013-03-24 05:40:00,
2013-03-24 00:50:00,57.3,54.4,29.67,NNE,32,0.0,0.0,90,0.00,,,0.00,Wunderground v.1.15,2013-03-24 05:50:00,
2013-03-24 00:55:00,57.2,54.3,29.67,NNE,32,0.0,0.0,90,0.00,,,0.00,Wunderground v.1.15,2013-03-24 05:55:00,
2013-03-24 01:05:00,57.0,54.4,29.66,NNE,32,0.0,0.0,91,0.00,,,0.00,Wunderground v.1.15,2013-03-24 06:05:00,
2013-03-24 01:10:00,57.0,54.4,29.66,NNE,32,0.0,0.0,91,0.00,,,0.00,Wunderground v.1.15,2013-03-24 06:10:00,
2013-03-24 01:20:00,57.0,54.7,29.67,NNE,32,0.0,0.0,92,0.00,,,0.00,Wunderground v.1.15,2013-03-24 06:20:00,
2013-03-24 01:25:00,56.9,54.6,29.67,NNE,32,0.0,0.0,92,0.00,,,0.00,Wunderground v.1.15,2013-03-24 06:25:00,
2013-03-24 01:35:00,57.2,55.2,29.68,NNE,16,2.0,2.0,93,0.00,,,0.00,Wunderground v.1.15,2013-03-24 06:35:00,
2013-03-24 01:40:00,58.0,56.3,29.70,North,3,3.0,3.0,94,0.00,,,0.00,Wunderground v.1.15,2013-03-24 06:40:00,
2013-03-24 01:50:00,58.9,57.2,29.74,North,0,5.0,10.0,94,0.00,,,0.00,Wunderground v.1.15,2013-03-24 06:50:00,
2013-03-24 01:55:00,58.7,56.4,29.74,North,349,7.0,10.0,92,0.00,,,0.00,Wunderground v.1.15,2013-03-24 06:55:00,
2013-03-24 02:05:00,58.6,56.3,29.74,NNW,347,5.0,6.0,92,0.00,,,0.00,Wunderground v.1.15,2013-03-24 07:05:00,
2013-03-24 02:10:00,58.4,56.1,29.74,NNW,347,4.0,7.0,92,0.00,,,0.00,Wunderground v.1.15,2013-03-24 07:10:00,
2013-03-24 02:20:00,58.4,55.8,29.75,NNW,342,5.0,5.0,91,0.00,,,0.00,Wunderground v.1.15,2013-03-24 07:20:00,
2013-03-24 02:25:00,58.6,55.7,29.76,North,0,7.0,7.0,90,0.00,,,0.00,Wunderground v.1.15,2013-03-24 07:25:00,
2013-03-24 02:35:00,58.1,53.9,29.78,North,0,7.0,8.0,86,0.00,,,0.00,Wunderground v.1.15,2013-03-24 07:35:00,
2013-03-24 02:40:00,57.6,53.1,29.79,NW,312,7.0,18.0,85,0.00,,,0.00,Wunderground v.1.15,2013-03-24 07:40:00,
2013-03-24 02:50:00,56.7,51.3,29.81,North,0,11.0,11.0,82,0.00,,,0.00,Wunderground v.1.15,2013-03-24 07:50:00,
2013-03-24 02:55:00,56.3,50.9,29.82,North,10,11.0,11.0,82,0.00,,,0.00,Wunderground v.1.15,2013-03-24 07:55:00,
2013-03-24 03:05:00,55.3,49.6,29.83,North,350,12.0,19.0,81,0.00,,,0.00,Wunderground v.1.15,2013-03-24 08:05:00,
2013-03-24 03:10:00,55.0,49.3,29.83,North,0,11.0,11.0,81,0.00,,,0.00,Wunderground v.1.15,2013-03-24 08:10:00,
2013-03-24 03:20:00,54.5,48.5,29.84,NW,318,6.0,8.0,80,0.00,,,0.00,Wunderground v.1.15,2013-03-24 08:20:00,
2013-03-24 03:25:00,54.4,48.0,29.84,NW,325,8.0,18.0,79,0.00,,,0.00,Wunderground v.1.15,2013-03-24 08:25:00,
2013-03-24 03:35:00,54.1,47.7,29.84,North,349,9.0,9.0,79,0.00,,,0.00,Wunderground v.1.15,2013-03-24 08:35:00,
2013-03-24 03:40:00,53.8,47.1,29.85,NW,320,9.0,12.0,78,0.00,,,0.00,Wunderground v.1.15,2013-03-24 08:40:00,
2013-03-24 03:50:00,53.3,46.3,29.85,North,350,12.0,15.0,77,0.00,,,0.00,Wunderground v.1.15,2013-03-24 08:50:00,
2013-03-24 03:55:00,53.1,45.7,29.85,NNW,330,12.0,16.0,76,0.00,,,0.00,Wunderground v.1.15,2013-03-24 08:55:00,
2013-03-24 04:05:00,52.5,45.2,29.85,NNW,339,12.0,12.0,76,0.00,,,0.00,Wunderground v.1.15,2013-03-24 09:05:00,
2013-03-24 04:10:00,52.3,45.0,29.86,North,359,10.0,10.0,76,0.00,,,0.00,Wunderground v.1.15,2013-03-24 09:10:00,
2013-03-24 04:20:00,52.0,45.0,29.86,NNW,337,11.0,16.0,77,0.00,,,0.00,Wunderground v.1.15,2013-03-24 09:20:00,
2013-03-24 04:25:00,51.6,44.6,29.86,North,353,10.0,16.0,77,0.00,,,0.00,Wunderground v.1.15,2013-03-24 09:25:00,
2013-03-24 04:35:00,51.1,44.1,29.86,NNW,339,9.0,14.0,77,0.00,,,0.00,Wunderground v.1.15,2013-03-24 09:35:00,
2013-03-24 04:40:00,50.8,43.2,29.87,NNW,328,10.0,19.0,75,0.00,,,0.00,Wunderground v.1.15,2013-03-24 09:40:00,
2013-03-24 04:50:00,49.4,41.5,29.88,NNW,343,11.0,14.0,74,0.00,,,0.00,Wunderground v.1.15,2013-03-24 09:50:00,
2013-03-24 04:55:00,48.8,41.2,29.88,North,357,9.0,14.0,75,0.00,,,0.00,Wunderground v.1.15,2013-03-24 09:55:00,
2013-03-24 05:05:00,48.0,40.8,29.90,North,352,8.0,10.0,76,0.00,,,0.00,Wunderground v.1.15,2013-03-24 10:05:00,
2013-03-24 05:10:00,47.9,40.7,29.91,NNW,339,5.0,10.0,76,0.00,,,0.00,Wunderground v.1.15,2013-03-24 10:10:00,
2013-03-24 05:20:00,47.1,39.2,29.91,NNW,344,8.0,11.0,74,0.00,,,0.00,Wunderground v.1.15,2013-03-24 10:20:00,
2013-03-24 05:25:00,46.7,38.5,29.92,NNW,332,9.0,11.0,73,0.00,,,0.00,Wunderground v.1.15,2013-03-24 10:25:00,
2013-03-24 05:35:00,45.8,37.3,29.92,NW,311,11.0,19.0,72,0.00,,,0.00,Wunderground v.1.15,2013-03-24 10:35:00,
2013-03-24 05:40:00,45.5,37.0,29.93,NW,305,10.0,17.0,72,0.00,,,0.00,Wunderground v.1.15,2013-03-24 10:40:00,
2013-03-24 05:50:00,44.9,36.8,29.93,NW,322,9.0,13.0,73,0.00,,,0.00,Wunderground v.1.15,2013-03-24 10:50:00,
2013-03-24 05:55:00,44.6,36.5,29.93,NW,313,9.0,13.0,73,0.00,,,0.00,Wunderground v.1.15,2013-03-24 10:55:00,
2013-03-24 06:05:00,44.2,35.4,29.94,NW,320,7.0,7.0,71,0.00,,,0.00,Wunderground v.1.15,2013-03-24 11:05:00,
2013-03-24 06:10:00,43.9,34.7,29.95,NNW,339,10.0,10.0,70,0.00,,,0.00,Wunderground v.1.15,2013-03-24 11:10:00,
2013-03-24 06:20:00,43.5,34.0,29.96,NW,325,10.0,16.0,69,0.00,,,0.00,Wunderground v.1.15,2013-03-24 11:20:00,
2013-03-24 06:25:00,43.3,33.8,29.97,NW,309,8.0,16.0,69,0.00,,,0.00,Wunderground v.1.15,2013-03-24 11:25:00,
2013-03-24 06:35:00,42.9,33.1,29.98,North,353,10.0,10.0,68,0.00,,,0.00,Wunderground v.1.15,2013-03-24 11:35:00,
2013-03-24 06:40:00,42.8,32.2,29.98,North,0,11.0,11.0,66,0.00,,,0.00,Wunderground v.1.15,2013-03-24 11:40:00,
2013-03-24 06:50:00,42.5,31.2,29.99,North,0,10.0,10.0,64,0.00,,,0.00,Wunderground v.1.15,2013-03-24 11:50:00,
2013-03-24 06:55:00,42.3,30.2,29.99,NW,318,11.0,14.0,62,0.00,,,0.00,Wunderground v.1.15,2013-03-24 11:55:00,
2013-03-24 07:05:00,42.1,30.8,30.01,NNW,337,11.0,12.0,64,0.00,,,0.00,Wunderground v.1.15,2013-03-24 12:05:00,
2013-03-24 07:10:00,41.8,30.5,30.01,NNW,333,8.0,8.0,64,0.00,,,0.00,Wunderground v.1.15,2013-03-24 12:10:00,
2013-03-24 07:20:00,41.5,30.2,30.02,NNW,346,10.0,20.0,64,0.00,,,0.00,Wunderground v.1.15,2013-03-24 12:20:00,
2013-03-24 07:25:00,41.3,30.0,30.02,NW,305,10.0,20.0,64,0.00,,,0.00,Wunderground v.1.15,2013-03-24 12:25:00,
2013-03-24 07:35:00,41.1,29.5,30.03,NW,316,7.0,8.0,63,0.00,,,0.00,Wunderground v.1.15,2013-03-24 12:35:00,
2013-03-24 07:40:00,40.9,29.7,30.04,NW,319,7.0,7.0,64,0.00,,,0.00,Wunderground v.1.15,2013-03-24 12:40:00,
2013-03-24 07:50:00,40.6,29.0,30.05,NNW,328,8.0,10.0,63,0.00,,,0.00,Wunderground v.1.15,2013-03-24 12:50:00,
2013-03-24 07:55:00,40.6,29.4,30.05,WNW,302,6.0,10.0,64,0.00,,,0.00,Wunderground v.1.15,2013-03-24 12:55:00,
2013-03-24 08:05:00,40.6,29.7,30.06,NNW,343,7.0,8.0,65,0.00,,,0.00,Wunderground v.1.15,2013-03-24 13:05:00,
2013-03-24 08:10:00,40.8,29.9,30.06,NW,312,6.0,8.0,65,0.00,,,0.00,Wunderground v.1.15,2013-03-24 13:10:00,
2013-03-24 08:20:00,40.8,29.9,30.07,NW,304,4.0,4.0,65,0.00,,,0.00,Wunderground v.1.15,2013-03-24 13:20:00,
2013-03-24 08:25:00,40.9,29.3,30.08,NW,311,3.0,4.0,63,0.00,,,0.00,Wunderground v.1.15,2013-03-24 13:25:00,
2013-03-24 08:35:00,40.9,28.1,30.08,North,359,5.0,11.0,60,0.00,,,0.00,Wunderground v.1.15,2013-03-24 13:35:00,
2013-03-24 08:40:00,40.9,26.8,30.09,NNW,343,5.0,5.0,57,0.00,,,0.00,Wunderground v.1.15,2013-03-24 13:40:00,
2013-03-24 08:50:00,41.1,26.6,30.09,North,354,8.0,14.0,56,0.00,,,0.00,Wunderground v.1.15,2013-03-24 13:50:00,
2013-03-24 08:55:00,41.1,26.1,30.09,NNW,344,7.0,14.0,55,0.00,,,0.00,Wunderground v.1.15,2013-03-24 13:55:00,
2013-03-24 09:05:00,41.3,25.4,30.11,North,350,7.0,20.0,53,0.00,,,0.00,Wunderground v.1.15,2013-03-24 14:05:00,
2013-03-24 09:10:00,41.5,26.1,30.11,North,0,7.0,11.0,54,0.00,,,0.00,Wunderground v.1.15,2013-03-24 14:10:00,
2013-03-24 09:20:00,41.8,25.9,30.11,NW,323,8.0,13.0,53,0.00,,,0.00,Wunderground v.1.15,2013-03-24 14:20:00,
2013-03-24 09:25:00,42.2,26.3,30.11,NW,309,7.0,13.0,53,0.00,,,0.00,Wunderground v.1.15,2013-03-24 14:25:00,
2013-03-24 09:35:00,42.3,25.0,30.12,North,0,8.0,13.0,50,0.00,,,0.00,Wunderground v.1.15,2013-03-24 14:35:00,
2013-03-24 09:40:00,42.3,24.5,30.12,North,0,9.0,11.0,49,0.00,,,0.00,Wunderground v.1.15,2013-03-24 14:40:00,
2013-03-24 09:50:00,42.9,25.0,30.12,NNW,347,11.0,16.0,49,0.00,,,0.00,Wunderground v.1.15,2013-03-24 14:50:00,
2013-03-24 09:55:00,43.1,25.7,30.12,NNW,344,9.0,16.0,50,0.00,,,0.00,Wunderground v.1.15,2013-03-24 14:55:00,
2013-03-24 10:04:00,44.3,26.3,30.13,North,352,6.0,8.0,49,0.00,,,0.00,Wunderground v.1.15,2013-03-24 15:04:00,
2013-03-24 10:10:00,44.6,25.6,30.13,NW,320,8.0,15.0,47,0.00,,,0.00,Wunderground v.1.15,2013-03-24 15:10:00,
2013-03-24 10:20:00,45.1,25.5,30.13,NNW,337,10.0,14.0,46,0.00,,,0.00,Wunderground v.1.15,2013-03-24 15:20:00,
2013-03-24 10:25:00,45.2,25.6,30.14,SW,227,9.0,14.0,46,0.00,,,0.00,Wunderground v.1.15,2013-03-24 15:25:00,
2013-03-24 10:35:00,45.8,25.6,30.13,NNW,330,10.0,12.0,45,0.00,,,0.00,Wunderground v.1.15,2013-03-24 15:35:00,
2013-03-24 10:40:00,46.4,25.6,30.13,NW,309,8.0,8.0,44,0.00,,,0.00,Wunderground v.1.15,2013-03-24 15:40:00,
2013-03-24 10:50:00,47.0,25.6,30.13,NW,313,9.0,9.0,43,0.00,,,0.00,Wunderground v.1.15,2013-03-24 15:50:00,
2013-03-24 10:55:00,47.3,24.8,30.13,North,350,10.0,14.0,41,0.00,,,0.00,Wunderground v.1.15,2013-03-24 15:55:00,
2013-03-24 11:05:00,48.0,26.0,30.14,NW,315,10.0,20.0,42,0.00,,,0.00,Wunderground v.1.15,2013-03-24 16:05:00,
2013-03-24 11:10:00,48.3,24.5,30.14,NNW,347,9.0,9.0,39,0.00,,,0.00,Wunderground v.1.15,2013-03-24 16:10:00,
2013-03-24 11:20:00,48.2,26.2,30.14,NW,323,8.0,8.0,42,0.00,,,0.00,Wunderground v.1.15,2013-03-24 16:20:00,
2013-03-24 11:25:00,48.5,25.2,30.13,North,352,10.0,10.0,40,0.00,,,0.00,Wunderground v.1.15,2013-03-24 16:25:00,
2013-03-24 11:35:00,49.4,24.8,30.14,NNW,336,10.0,17.0,38,0.00,,,0.00,Wunderground v.1.15,2013-03-24 16:35:00,
2013-03-24 11:40:00,49.9,25.3,30.13,NNW,330,9.0,11.0,38,0.00,,,0.00,Wunderground v.1.15,2013-03-24 16:40:00,
2013-03-24 11:50:00,51.1,25.0,30.13,North,353,6.0,6.0,36,0.00,,,0.00,Wunderground v.1.15,2013-03-24 16:50:00,
2013-03-24 11:55:00,51.3,27.2,30.13,NW,316,8.0,18.0,39,0.00,,,0.00,Wunderground v.1.15,2013-03-24 16:55:00,
2013-03-24 12:05:00,52.8,25.2,30.13,NW,308,6.0,16.0,34,0.00,,,0.00,Wunderground v.1.15,2013-03-24 17:05:00,
2013-03-24 12:10:00,52.8,27.2,30.13,NW,319,5.0,13.0,37,0.00,,,0.00,Wunderground v.1.15,2013-03-24 17:10:00,
2013-03-24 12:20:00,53.6,25.9,30.12,WNW,302,5.0,21.0,34,0.00,,,0.00,Wunderground v.1.15,2013-03-24 17:20:00,
2013-03-24 12:25:00,53.9,24.7,30.12,NNW,329,4.0,21.0,32,0.00,,,0.00,Wunderground v.1.15,2013-03-24 17:25:00,
2013-03-24 12:35:00,53.1,26.1,30.12,NW,323,9.0,10.0,35,0.00,,,0.00,Wunderground v.1.15,2013-03-24 17:35:00,
2013-03-24 12:40:00,52.9,23.8,30.12,North,0,9.0,12.0,32,0.00,,,0.00,Wunderground v.1.15,2013-03-24 17:40:00,
2013-03-24 12:50:00,53.8,23.8,30.11,NW,316,7.0,7.0,31,0.00,,,0.00,Wunderground v.1.15,2013-03-24 17:50:00,
2013-03-24 12:55:00,54.5,25.2,30.11,North,353,5.0,16.0,32,0.00,,,0.00,Wunderground v.1.15,2013-03-24 17:55:00,
2013-03-24 13:05:00,53.8,23.8,30.10,North,354,9.0,12.0,31,0.00,,,0.00,Wunderground v.1.15,2013-03-24 18:05:00,
2013-03-24 13:10:00,54.5,24.4,30.10,NW,320,7.0,7.0,31,0.00,,,0.00,Wunderground v.1.15,2013-03-24 18:10:00,
2013-03-24 13:20:00,54.5,22.9,30.09,NNW,335,8.0,10.0,29,0.00,,,0.00,Wunderground v.1.15,2013-03-24 18:20:00,
2013-03-24 13:25:00,55.6,24.6,30.09,North,352,9.0,10.0,30,0.00,,,0.00,Wunderground v.1.15,2013-03-24 18:25:00,
2013-03-24 13:35:00,56.3,25.2,30.08,NNW,339,5.0,21.0,30,0.00,,,0.00,Wunderground v.1.15,2013-03-24 18:35:00,
2013-03-24 13:40:00,56.0,25.0,30.08,NNW,337,7.0,7.0,30,0.00,,,0.00,Wunderground v.1.15,2013-03-24 18:40:00,
2013-03-24 13:50:00,56.0,23.3,30.08,NW,320,6.0,6.0,28,0.00,,,0.00,Wunderground v.1.15,2013-03-24 18:50:00,
2013-03-24 13:55:00,56.2,23.5,30.08,NNW,335,8.0,8.0,28,0.00,,,0.00,Wunderground v.1.15,2013-03-24 18:55:00,
2013-03-24 14:05:00,55.7,24.7,30.07,WNW,294,8.0,19.0,30,0.00,,,0.00,Wunderground v.1.15,2013-03-24 19:05:00,
2013-03-24 14:10:00,56.6,24.7,30.07,WNW,296,6.0,10.0,29,0.00,,,0.00,Wunderground v.1.15,2013-03-24 19:10:00,
2013-03-24 14:20:00,56.7,23.0,30.06,North,353,7.0,7.0,27,0.00,,,0.00,Wunderground v.1.15,2013-03-24 19:20:00,
2013-03-24 14:25:00,56.6,23.8,30.06,North,359,8.0,8.0,28,0.00,,,0.00,Wunderground v.1.15,2013-03-24 19:25:00,
2013-03-24 14:34:00,57.5,24.6,30.06,NNW,329,5.0,13.0,28,0.00,,,0.00,Wunderground v.1.15,2013-03-24 19:34:00,
2013-03-24 14:40:00,57.6,23.8,30.05,NNW,340,4.0,4.0,27,0.00,,,0.00,Wunderground v.1.15,2013-03-24 19:40:00,
2013-03-24 14:50:00,58.0,25.0,30.05,North,0,6.0,6.0,28,0.00,,,0.00,Wunderground v.1.15,2013-03-24 19:50:00,
2013-03-24 14:55:00,58.4,24.5,30.04,WNW,291,6.0,6.0,27,0.00,,,0.00,Wunderground v.1.15,2013-03-24 19:55:00,
2013-03-24 15:05:00,59.0,24.1,30.04,North,357,5.0,6.0,26,0.00,,,0.00,Wunderground v.1.15,2013-03-24 20:05:00,
2013-03-24 15:10:00,58.4,22.7,30.04,North,10,5.0,5.0,25,0.00,,,0.00,Wunderground v.1.15,2013-03-24 20:10:00,
2013-03-24 15:20:00,57.8,24.9,30.03,NNW,343,5.0,5.0,28,0.00,,,0.00,Wunderground v.1.15,2013-03-24 20:20:00,
2013-03-24 15:25:00,58.4,22.7,30.04,North,10,7.0,7.0,25,0.00,,,0.00,Wunderground v.1.15,2013-03-24 20:25:00,
2013-03-24 15:35:00,58.0,23.3,30.03,NNW,346,7.0,12.0,26,0.00,,,0.00,Wunderground v.1.15,2013-03-24 20:35:00,
2013-03-24 15:40:00,58.4,23.6,30.03,NNW,328,6.0,6.0,26,0.00,,,0.00,Wunderground v.1.15,2013-03-24 20:40:00,
2013-03-24 15:50:00,58.4,24.5,30.03,NNW,330,4.0,20.0,27,0.00,,,0.00,Wunderground v.1.15,2013-03-24 20:50:00,
2013-03-24 15:55:00,58.1,23.3,30.02,NNW,346,7.0,20.0,26,0.00,,,0.00,Wunderground v.1.15,2013-03-24 20:55:00,
2013-03-24 16:05:00,58.7,23.9,30.02,North,0,4.0,11.0,26,0.00,,,0.00,Wunderground v.1.15,2013-03-24 21:05:00,
2013-03-24 16:10:00,58.0,22.3,30.02,NNW,335,6.0,6.0,25,0.00,,,0.00,Wunderground v.1.15,2013-03-24 21:10:00,
2013-03-24 16:20:00,57.5,21.9,30.02,NW,312,7.0,7.0,25,0.00,,,0.00,Wunderground v.1.15,2013-03-24 21:20:00,
2013-03-24 16:25:00,57.6,22.0,30.02,North,0,6.0,12.0,25,0.00,,,0.00,Wunderground v.1.15,2013-03-24 21:25:00,
2013-03-24 16:35:00,56.9,20.4,30.02,NNW,332,8.0,19.0,24,0.00,,,0.00,Wunderground v.1.15,2013-03-24 21:35:00,
2013-03-24 16:40:00,56.5,21.1,30.02,North,350,9.0,9.0,25,0.00,,,0.00,Wunderground v.1.15,2013-03-24 21:40:00,
2013-03-24 16:50:00,56.5,22.0,30.02,NNW,336,6.0,6.0,26,0.00,,,0.00,Wunderground v.1.15,2013-03-24 21:50:00,
2013-03-24 16:55:00,56.3,23.6,30.02,NNW,342,4.0,13.0,28,0.00,,,0.00,Wunderground v.1.15,2013-03-24 21:55:00,
2013-03-24 17:05:00,56.3,21.8,30.02,North,0,6.0,11.0,26,0.00,,,0.00,Wunderground v.1.15,2013-03-24 22:05:00,
2013-03-24 17:10:00,55.7,22.2,30.02,North,0,8.0,8.0,27,0.00,,,0.00,Wunderground v.1.15,2013-03-24 22:10:00,
2013-03-24 17:20:00,55.6,22.1,30.01,North,356,7.0,7.0,27,0.00,,,0.00,Wunderground v.1.15,2013-03-24 22:20:00,
2013-03-24 17:25:00,55.4,22.8,30.02,North,3,6.0,7.0,28,0.00,,,0.00,Wunderground v.1.15,2013-03-24 22:25:00,
2013-03-24 17:35:00,55.4,22.8,30.02,North,1,6.0,6.0,28,0.00,,,0.00,Wunderground v.1.15,2013-03-24 22:35:00,
2013-03-24 17:40:00,55.3,20.0,30.02,North,10,5.0,5.0,25,0.00,,,0.00,Wunderground v.1.15,2013-03-24 22:40:00,
2013-03-24 17:50:00,55.1,21.7,30.02,North,0,4.0,16.0,27,0.00,,,0.00,Wunderground v.1.15,2013-03-24 22:50:00,
2013-03-24 17:55:00,54.8,22.3,30.02,North,349,4.0,16.0,28,0.00,,,0.00,Wunderground v.1.15,2013-03-24 22:55:00,
2013-03-24 18:05:00,54.8,22.3,30.02,NNW,340,4.0,14.0,28,0.00,,,0.00,Wunderground v.1.15,2013-03-24 23:05:00,
2013-03-24 18:10:00,54.5,22.0,30.02,NNE,27,5.0,5.0,28,0.00,,,0.00,Wunderground v.1.15,2013-03-24 23:10:00,
2013-03-24 18:20:00,54.5,22.9,30.02,North,3,4.0,4.0,29,0.00,,,0.00,Wunderground v.1.15,2013-03-24 23:20:00,
2013-03-24 18:25:00,54.4,21.9,30.02,North,6,5.0,5.0,28,0.00,,,0.00,Wunderground v.1.15,2013-03-24 23:25:00,
2013-03-24 18:34:00,53.8,21.4,30.02,North,0,6.0,6.0,28,0.00,,,0.00,Wunderground v.1.15,2013-03-24 23:34:00,
2013-03-24 18:40:00,53.6,21.2,30.02,North,4,6.0,6.0,28,0.00,,,0.00,Wunderground v.1.15,2013-03-24 23:40:00,
2013-03-24 18:50:00,53.3,21.0,30.03,North,0,6.0,6.0,28,0.00,,,0.00,Wunderground v.1.15,2013-03-24 23:50:00,
2013-03-24 18:55:00,53.3,21.8,30.03,North,0,2.0,6.0,29,0.00,,,0.00,Wunderground v.1.15,2013-03-24 23:55:00,
2013-03-24 19:05:00,52.9,20.6,30.03,North,0,3.0,3.0,28,0.00,,,0.00,Wunderground v.1.15,2013-03-25 00:05:00,
2013-03-24 19:10:00,52.6,21.2,30.03,North,3,4.0,4.0,29,0.00,,,0.00,Wunderground v.1.15,2013-03-25 00:10:00,
2013-03-24 19:20:00,52.2,20.0,30.04,North,10,2.0,2.0,28,0.00,,,0.00,Wunderground v.1.15,2013-03-25 00:20:00,
2013-03-24 19:25:00,51.9,21.4,30.04,North,1,2.0,2.0,30,0.00,,,0.00,Wunderground v.1.15,2013-03-25 00:25:00,
2013-03-24 19:35:00,51.4,21.7,30.05,North,0,1.0,1.0,31,0.00,,,0.00,Wunderground v.1.15,2013-03-25 00:35:00,
2013-03-24 19:40:00,51.1,22.2,30.05,North,0,0.0,1.0,32,0.00,,,0.00,Wunderground v.1.15,2013-03-25 00:40:00,
2013-03-24 19:50:00,50.5,20.9,30.06,North,0,1.0,1.0,31,0.00,,,0.00,Wunderground v.1.15,2013-03-25 00:50:00,
2013-03-24 19:55:00,50.2,21.4,30.06,North,0,1.0,1.0,32,0.00,,,0.00,Wunderground v.1.15,2013-03-25 00:55:00,
2013-03-24 20:05:00,49.6,20.9,30.06,North,0,0.0,0.0,32,0.00,,,0.00,Wunderground v.1.15,2013-03-25 01:05:00,
2013-03-24 20:10:00,49.5,20.8,30.06,North,0,0.0,0.0,32,0.00,,,0.00,Wunderground v.1.15,2013-03-25 01:10:00,
2013-03-24 20:20:00,49.1,19.7,30.07,North,6,0.0,0.0,31,0.00,,,0.00,Wunderground v.1.15,2013-03-25 01:20:00,
2013-03-24 20:25:00,49.1,21.2,30.07,North,4,0.0,0.0,33,0.00,,,0.00,Wunderground v.1.15,2013-03-25 01:25:00,
2013-03-24 20:35:00,48.6,21.5,30.08,North,0,0.0,1.0,34,0.00,,,0.00,Wunderground v.1.15,2013-03-25 01:35:00,
2013-03-24 20:40:00,48.5,21.4,30.08,North,0,0.0,0.0,34,0.00,,,0.00,Wunderground v.1.15,2013-03-25 01:40:00,
2013-03-24 20:50:00,47.9,21.5,30.08,North,0,0.0,0.0,35,0.00,,,0.00,Wunderground v.1.15,2013-03-25 01:50:00,
2013-03-24 20:55:00,47.6,22.6,30.08,North,0,0.0,0.0,37,0.00,,,0.00,Wunderground v.1.15,2013-03-25 01:55:00,
2013-03-24 21:05:00,47.0,22.7,30.09,North,0,0.0,0.0,38,0.00,,,0.00,Wunderground v.1.15,2013-03-25 02:05:00,
2013-03-24 21:10:00,46.5,22.2,30.09,North,0,0.0,0.0,38,0.00,,,0.00,Wunderground v.1.15,2013-03-25 02:10:00,
2013-03-24 21:20:00,46.2,23.8,30.09,North,0,0.0,0.0,41,0.00,,,0.00,Wunderground v.1.15,2013-03-25 02:20:00,
2013-03-24 21:25:00,45.8,23.4,30.10,North,0,0.0,0.0,41,0.00,,,0.00,Wunderground v.1.15,2013-03-25 02:25:00,
2013-03-24 21:35:00,45.2,24.0,30.11,North,0,0.0,0.0,43,0.00,,,0.00,Wunderground v.1.15,2013-03-25 02:35:00,
2013-03-24 21:40:00,44.8,24.2,30.11,North,0,0.0,0.0,44,0.00,,,0.00,Wunderground v.1.15,2013-03-25 02:40:00,
2013-03-24 21:50:00,44.1,24.1,30.11,North,0,0.0,0.0,45,0.00,,,0.00,Wunderground v.1.15,2013-03-25 02:50:00,
2013-03-24 21:55:00,43.6,24.2,30.12,North,0,0.0,0.0,46,0.00,,,0.00,Wunderground v.1.15,2013-03-25 02:55:00,
2013-03-24 22:05:00,43.1,24.2,30.12,North,0,0.0,0.0,47,0.00,,,0.00,Wunderground v.1.15,2013-03-25 03:05:00,
2013-03-24 22:10:00,42.8,24.4,30.12,North,0,0.0,0.0,48,0.00,,,0.00,Wunderground v.1.15,2013-03-25 03:10:00,
2013-03-24 22:20:00,42.2,24.9,30.13,North,0,0.0,0.0,50,0.00,,,0.00,Wunderground v.1.15,2013-03-25 03:20:00,
2013-03-24 22:25:00,42.1,24.8,30.13,North,0,0.0,0.0,50,0.00,,,0.00,Wunderground v.1.15,2013-03-25 03:25:00,
2013-03-24 22:35:00,42.5,23.7,30.14,North,0,0.0,0.0,47,0.00,,,0.00,Wunderground v.1.15,2013-03-25 03:35:00,
2013-03-24 22:40:00,42.8,23.9,30.14,North,0,0.0,0.0,47,0.00,,,0.00,Wunderground v.1.15,2013-03-25 03:40:00,
2013-03-24 22:50:00,42.8,24.4,30.14,North,0,0.0,0.0,48,0.00,,,0.00,Wunderground v.1.15,2013-03-25 03:50:00,
2013-03-24 22:55:00,42.6,25.2,30.14,North,0,0.0,0.0,50,0.00,,,0.00,Wunderground v.1.15,2013-03-25 03:55:00,
2013-03-24 23:00:00,42.3,25.0,30.14,North,0,0.0,0.0,50,0.00,,,0.00,Wunderground v.1.15,2013-03-25 04:00:00,
2013-03-24 23:05:00,42.2,24.9,30.14,North,0,0.0,0.0,50,0.00,,,0.00,Wunderground v.1.15,2013-03-25 04:05:00,
2013-03-24 23:10:00,41.8,25.0,30.15,North,0,0.0,0.0,51,0.00,,,0.00,Wunderground v.1.15,2013-03-25 04:10:00,
2013-03-24 23:15:00,41.6,25.7,30.15,North,0,0.0,0.0,53,0.00,,,0.00,Wunderground v.1.15,2013-03-25 04:15:00,
2013-03-24 23:20:00,41.2,25.3,30.15,North,0,0.0,0.0,53,0.00,,,0.00,Wunderground v.1.15,2013-03-25 04:20:00,
2013-03-24 23:25:00,40.8,25.0,30.15,North,0,0.0,0.0,53,0.00,,,0.00,Wunderground v.1.15,2013-03-25 04:25:00,
2013-03-24 23:34:00,40.3,25.0,30.15,North,0,0.0,0.0,54,0.00,,,0.00,Wunderground v.1.15,2013-03-25 04:34:00,
2013-03-24 23:40:00,40.6,24.3,30.15,North,0,0.0,0.0,52,0.00,,,0.00,Wunderground v.1.15,2013-03-25 04:40:00,
2013-03-24 23:45:00,41.1,24.3,30.15,North,0,1.0,1.0,51,0.00,,,0.00,Wunderground v.1.15,2013-03-25 04:45:00,
2013-03-24 23:50:00,41.5,24.2,30.15,North,0,1.0,1.0,50,0.00,,,0.00,Wunderground v.1.15,2013-03-25 04:50:00,
2013-03-24 23:55:00,41.8,24.5,30.15,North,0,0.0,1.0,50,0.00,,,0.00,Wunderground v.1.15,2013-03-25 04:55:00,